Year,Month,Day,Hour,Minute,Value (Times are PST for temperature in C)
2013,03,25,09,00,5.90
2013,03,25,09,01,6.00
2013,03,25,09,02,6.00
2013,03,25,09,03,6.10
2013,03,25,09,04,6.20
2013,03,25,09,05,6.30
2013,03,25,09,06,6.40
2013,03,25,09,07,6.60
2013,03,25,09,08,6.70
2013,03,25,09,09,6.80
2013,03,25,09,10,6.80
2013,03,25,09,11,6.90
2013,03,25,09,12,6.90
2013,03,25,09,13,6.90
2013,03,25,09,14,6.90
2013,03,25,09,15,7.00
2013,03,25,09,16,7.00
2013,03,25,09,17,7.00
2013,03,25,09,18,7.10
2013,03,25,09,19,7.10
2013,03,25,09,20,7.10
2013,03,25,09,21,7.10
2013,03,25,09,22,7.10
2013,03,25,09,23,7.10
2013,03,25,09,24,7.10
2013,03,25,09,25,7.10
2013,03,25,09,26,7.10
2013,03,25,09,27,7.10
2013,03,25,09,28,7.10
2013,03,25,09,29,7.10
2013,03,25,09,30,7.20
2013,03,25,09,31,7.20
2013,03,25,09,32,7.10
2013,03,25,09,33,7.00
2013,03,25,09,34,7.00
2013,03,25,09,35,7.10
2013,03,25,09,36,7.20
2013,03,25,09,37,7.10
2013,03,25,09,38,7.10
2013,03,25,09,39,7.00
2013,03,25,09,40,7.10
2013,03,25,09,41,7.10
2013,03,25,09,42,7.20
2013,03,25,09,43,7.20
2013,03,25,09,44,7.20
2013,03,25,09,45,7.20
2013,03,25,09,46,7.10
2013,03,25,09,47,7.20
2013,03,25,09,48,7.20
2013,03,25,09,49,7.20
2013,03,25,09,50,7.30
2013,03,25,09,51,7.30
2013,03,25,09,52,7.30
2013,03,25,09,53,7.40
2013,03,25,09,54,7.40
2013,03,25,09,55,7.50
2013,03,25,09,56,7.60
2013,03,25,09,57,7.70
2013,03,25,09,58,7.80
2013,03,25,09,59,7.80
2013,03,25,10,00,7.90
2013,03,25,10,01,7.90
2013,03,25,10,02,7.90
2013,03,25,10,03,7.90
2013,03,25,10,04,8.00
2013,03,25,10,05,8.00
2013,03,25,10,06,8.00
2013,03,25,10,07,8.10
2013,03,25,10,08,8.10
2013,03,25,10,09,8.20
2013,03,25,10,10,8.20
2013,03,25,10,11,8.20
2013,03,25,10,12,8.20
2013,03,25,10,13,8.20
2013,03,25,10,14,8.20
2013,03,25,10,15,8.20
2013,03,25,10,16,8.30
2013,03,25,10,17,8.30
2013,03,25,10,18,8.40
2013,03,25,10,19,8.50
2013,03,25,10,20,8.50
2013,03,25,10,21,8.50
2013,03,25,10,22,8.40
2013,03,25,10,23,8.40
2013,03,25,10,24,8.30
2013,03,25,10,25,8.20
2013,03,25,10,26,8.10
2013,03,25,10,27,8.10
2013,03,25,10,28,8.00
2013,03,25,10,29,8.00
2013,03,25,10,30,8.00
2013,03,25,10,31,8.00
2013,03,25,10,32,8.10
2013,03,25,10,33,8.10
2013,03,25,10,34,8.10
2013,03,25,10,35,8.00
2013,03,25,10,36,8.00
2013,03,25,10,37,8.00
2013,03,25,10,38,8.00
2013,03,25,10,39,8.10
2013,03,25,10,40,8.20
2013,03,25,10,41,8.20
2013,03,25,10,42,8.30
2013,03,25,10,43,8.40
2013,03,25,10,44,8.40
2013,03,25,10,45,8.40
2013,03,25,10,46,8.50
2013,03,25,10,47,8.50
2013,03,25,10,48,8.60
2013,03,25,10,49,8.80
2013,03,25,10,50,8.90
2013,03,25,10,51,9.10
2013,03,25,10,52,9.20
2013,03,25,10,53,9.20
2013,03,25,10,54,9.20
2013,03,25,10,55,9.10
2013,03,25,10,56,8.90
2013,03,25,10,57,8.90
2013,03,25,10,58,8.90
2013,03,25,10,59,9.00
2013,03,25,11,00,9.10
2013,03,25,11,01,9.20
2013,03,25,11,02,9.20
2013,03,25,11,03,9.30
2013,03,25,11,04,9.20
2013,03,25,11,05,9.20
2013,03,25,11,06,9.20
2013,03,25,11,07,9.10
2013,03,25,11,08,9.00
2013,03,25,11,09,9.00
2013,03,25,11,10,8.90
2013,03,25,11,11,8.90
2013,03,25,11,12,8.80
2013,03,25,11,13,8.90
2013,03,25,11,14,8.80
2013,03,25,11,15,8.80
2013,03,25,11,16,8.80
2013,03,25,11,17,8.90
2013,03,25,11,18,8.90
2013,03,25,11,19,8.90
2013,03,25,11,20,9.00
2013,03,25,11,21,8.90
2013,03,25,11,22,8.90
2013,03,25,11,23,8.90
2013,03,25,11,24,8.90
2013,03,25,11,25,9.00
2013,03,25,11,26,8.90
2013,03,25,11,27,8.90
2013,03,25,11,28,8.80
2013,03,25,11,29,8.80
2013,03,25,11,30,8.70
2013,03,25,11,31,8.70
2013,03,25,11,32,8.70
2013,03,25,11,33,8.80
2013,03,25,11,34,8.90
2013,03,25,11,35,9.00
2013,03,25,11,36,9.20
2013,03,25,11,37,9.20
2013,03,25,11,38,9.10
2013,03,25,11,39,9.10
2013,03,25,11,40,9.00
2013,03,25,11,41,9.00
2013,03,25,11,42,8.90
2013,03,25,11,43,8.90
2013,03,25,11,44,8.90
2013,03,25,11,45,8.90
2013,03,25,11,46,8.90
2013,03,25,11,47,8.80
2013,03,25,11,48,8.70
2013,03,25,11,49,8.80
2013,03,25,11,50,8.80
2013,03,25,11,51,8.70
2013,03,25,11,52,8.70
2013,03,25,11,53,8.70
2013,03,25,11,54,8.70
2013,03,25,11,55,8.70
2013,03,25,11,56,8.70
2013,03,25,11,57,8.70
2013,03,25,11,58,8.80
2013,03,25,11,59,8.90
2013,03,25,12,00,9.00
2013,03,25,12,01,9.00
2013,03,25,12,02,9.00
2013,03,25,12,03,9.00
2013,03,25,12,04,9.20
2013,03,25,12,05,9.30
2013,03,25,12,06,9.30
2013,03,25,12,07,9.20
2013,03,25,12,08,9.30
2013,03,25,12,09,9.30
2013,03,25,12,10,9.30
2013,03,25,12,11,9.20
2013,03,25,12,12,9.10
2013,03,25,12,13,9.10
2013,03,25,12,14,9.10
2013,03,25,12,15,9.20
2013,03,25,12,16,9.20
2013,03,25,12,17,9.20
2013,03,25,12,18,9.30
2013,03,25,12,19,9.40
2013,03,25,12,20,9.50
2013,03,25,12,21,9.60
2013,03,25,12,22,9.60
2013,03,25,12,23,9.60
2013,03,25,12,24,9.70
2013,03,25,12,25,9.50
2013,03,25,12,26,9.50
2013,03,25,12,27,9.40
2013,03,25,12,28,9.30
2013,03,25,12,29,9.40
2013,03,25,12,30,9.40
2013,03,25,12,31,9.40
2013,03,25,12,32,9.40
2013,03,25,12,33,9.40
2013,03,25,12,34,9.40
2013,03,25,12,35,9.30
2013,03,25,12,36,9.30
2013,03,25,12,37,9.20
2013,03,25,12,38,9.20
2013,03,25,12,39,9.20
2013,03,25,12,40,9.20
2013,03,25,12,41,9.20
2013,03,25,12,42,9.20
2013,03,25,12,43,9.20
2013,03,25,12,44,9.20
2013,03,25,12,45,9.20
2013,03,25,12,46,9.20
2013,03,25,12,47,9.40
2013,03,25,12,48,9.40
2013,03,25,12,49,9.50
2013,03,25,12,50,9.70
2013,03,25,12,51,9.70
2013,03,25,12,52,9.70
2013,03,25,12,53,9.70
2013,03,25,12,54,9.60
2013,03,25,12,55,9.60
2013,03,25,12,56,9.60
2013,03,25,12,57,9.60
2013,03,25,12,58,9.70
2013,03,25,12,59,9.70
2013,03,25,13,00,9.70
2013,03,25,13,01,9.70
2013,03,25,13,02,9.70
2013,03,25,13,03,9.60
2013,03,25,13,04,9.70
2013,03,25,13,05,9.70
2013,03,25,13,06,9.80
2013,03,25,13,07,9.90
2013,03,25,13,08,10.00
2013,03,25,13,09,10.10
2013,03,25,13,10,10.20
2013,03,25,13,11,10.20
2013,03,25,13,12,10.10
2013,03,25,13,13,9.90
2013,03,25,13,14,9.80
2013,03,25,13,15,9.70
2013,03,25,13,16,9.70
2013,03,25,13,17,9.70
2013,03,25,13,18,9.70
2013,03,25,13,19,9.80
2013,03,25,13,20,9.70
2013,03,25,13,21,9.80
2013,03,25,13,22,9.90
2013,03,25,13,23,10.00
2013,03,25,13,24,10.00
2013,03,25,13,25,10.00
2013,03,25,13,26,10.10
2013,03,25,13,27,10.10
2013,03,25,13,28,10.10
2013,03,25,13,29,10.10
2013,03,25,13,30,10.20
2013,03,25,13,31,10.30
2013,03,25,13,32,10.30
2013,03,25,13,33,10.40
2013,03,25,13,34,10.40
2013,03,25,13,35,10.40
2013,03,25,13,36,10.30
2013,03,25,13,37,10.30
2013,03,25,13,38,10.40
2013,03,25,13,39,10.40
2013,03,25,13,40,10.40
2013,03,25,13,41,10.50
2013,03,25,13,42,10.60
2013,03,25,13,43,10.50
2013,03,25,13,44,10.40
2013,03,25,13,45,10.40
2013,03,25,13,46,10.40
2013,03,25,13,47,10.40
2013,03,25,13,48,10.40
2013,03,25,13,49,10.50
2013,03,25,13,50,10.60
2013,03,25,13,51,10.60
2013,03,25,13,52,10.50
2013,03,25,13,53,10.50
2013,03,25,13,54,10.40
2013,03,25,13,55,10.40
2013,03,25,13,56,10.40
2013,03,25,13,57,10.30
2013,03,25,13,58,10.30
2013,03,25,13,59,10.20
2013,03,25,14,00,10.20
2013,03,25,14,01,10.30
2013,03,25,14,02,10.40
2013,03,25,14,03,10.60
2013,03,25,14,04,10.60
2013,03,25,14,05,10.50
2013,03,25,14,06,10.40
2013,03,25,14,07,10.40
2013,03,25,14,08,10.50
2013,03,25,14,09,10.60
2013,03,25,14,10,10.70
2013,03,25,14,11,10.70
2013,03,25,14,12,10.60
2013,03,25,14,13,10.40
2013,03,25,14,14,10.40
2013,03,25,14,15,10.30
2013,03,25,14,16,10.40
2013,03,25,14,17,10.40
2013,03,25,14,18,10.50
2013,03,25,14,19,10.60
2013,03,25,14,20,10.70
2013,03,25,14,21,10.80
2013,03,25,14,22,10.80
2013,03,25,14,23,10.80
2013,03,25,14,24,10.80
2013,03,25,14,25,10.70
2013,03,25,14,26,10.70
2013,03,25,14,27,10.70
2013,03,25,14,28,10.70
2013,03,25,14,29,10.70
2013,03,25,14,30,10.70
2013,03,25,14,31,10.70
2013,03,25,14,32,10.60
2013,03,25,14,33,10.70
2013,03,25,14,34,10.80
2013,03,25,14,35,10.80
2013,03,25,14,36,10.90
2013,03,25,14,37,10.90
2013,03,25,14,38,11.00
2013,03,25,14,39,11.10
2013,03,25,14,40,11.10
2013,03,25,14,41,11.10
2013,03,25,14,42,11.10
2013,03,25,14,43,11.10
2013,03,25,14,44,11.10
2013,03,25,14,45,11.10
2013,03,25,14,46,11.10
2013,03,25,14,47,11.20
2013,03,25,14,48,11.20
2013,03,25,14,49,11.20
2013,03,25,14,50,11.10
2013,03,25,14,51,11.10
2013,03,25,14,52,11.00
2013,03,25,14,53,10.90
2013,03,25,14,54,10.90
2013,03,25,14,55,11.00
2013,03,25,14,56,10.90
2013,03,25,14,57,10.90
2013,03,25,14,58,10.80
2013,03,25,14,59,10.80
2013,03,25,15,00,10.80
2013,03,25,15,01,10.80
2013,03,25,15,02,10.70
2013,03,25,15,03,10.80
2013,03,25,15,04,10.90
2013,03,25,15,05,10.90
2013,03,25,15,06,10.90
2013,03,25,15,07,10.90
2013,03,25,15,08,10.90
2013,03,25,15,09,10.90
2013,03,25,15,10,11.00
2013,03,25,15,11,11.20
2013,03,25,15,12,11.30
2013,03,25,15,13,11.30
2013,03,25,15,14,11.40
2013,03,25,15,15,11.40
2013,03,25,15,16,11.40
2013,03,25,15,17,11.40
2013,03,25,15,18,11.40
2013,03,25,15,19,11.40
2013,03,25,15,20,11.40
2013,03,25,15,21,11.40
2013,03,25,15,22,11.40
2013,03,25,15,23,11.40
2013,03,25,15,24,11.40
2013,03,25,15,25,11.40
2013,03,25,15,26,11.40
2013,03,25,15,27,11.40
2013,03,25,15,28,11.40
2013,03,25,15,29,11.50
2013,03,25,15,30,11.60
2013,03,25,15,31,11.60
2013,03,25,15,32,11.60
2013,03,25,15,33,11.60
2013,03,25,15,34,11.60
2013,03,25,15,35,11.60
2013,03,25,15,36,11.70
2013,03,25,15,37,11.80
2013,03,25,15,38,11.80
2013,03,25,15,39,11.80
2013,03,25,15,40,11.80
2013,03,25,15,41,11.80
2013,03,25,15,42,11.80
2013,03,25,15,43,11.60
2013,03,25,15,44,11.60
2013,03,25,15,45,11.50
2013,03,25,15,46,11.40
2013,03,25,15,47,11.40
2013,03,25,15,48,11.40
2013,03,25,15,49,11.40
2013,03,25,15,50,11.40
2013,03,25,15,51,11.40
2013,03,25,15,52,11.50
2013,03,25,15,53,11.60
2013,03,25,15,54,11.60
2013,03,25,15,55,11.70
2013,03,25,15,56,11.80
2013,03,25,15,57,11.70
2013,03,25,15,58,11.60
2013,03,25,15,59,11.50
2013,03,25,16,00,11.40
2013,03,25,16,01,11.40
2013,03,25,16,02,11.40
2013,03,25,16,03,11.40
2013,03,25,16,04,11.40
2013,03,25,16,05,11.40
2013,03,25,16,06,11.40
2013,03,25,16,07,11.30
2013,03,25,16,08,11.30
2013,03,25,16,09,11.30
2013,03,25,16,10,11.30
2013,03,25,16,11,11.40
2013,03,25,16,12,11.40
2013,03,25,16,13,11.40
2013,03,25,16,14,11.40
2013,03,25,16,15,11.50
2013,03,25,16,16,11.60
2013,03,25,16,17,11.70
2013,03,25,16,18,11.80
2013,03,25,16,19,11.80
2013,03,25,16,20,11.80
2013,03,25,16,21,11.80
2013,03,25,16,22,11.80
2013,03,25,16,23,11.80
2013,03,25,16,24,11.80
2013,03,25,16,25,11.80
2013,03,25,16,26,11.80
2013,03,25,16,27,11.80
2013,03,25,16,28,11.90
2013,03,25,16,29,11.80
2013,03,25,16,30,11.80
2013,03,25,16,31,11.80
2013,03,25,16,32,11.80
2013,03,25,16,33,11.70
2013,03,25,16,34,11.80
2013,03,25,16,35,11.80
2013,03,25,16,36,11.80
2013,03,25,16,37,11.80
2013,03,25,16,38,11.80
2013,03,25,16,39,11.80
2013,03,25,16,40,11.80
2013,03,25,16,41,11.80
2013,03,25,16,42,11.80
2013,03,25,16,43,11.80
2013,03,25,16,44,11.80
2013,03,25,16,45,11.80
2013,03,25,16,46,11.80
2013,03,25,16,47,11.80
2013,03,25,16,48,11.80
2013,03,25,16,49,11.80
2013,03,25,16,50,11.90
2013,03,25,16,51,11.90
2013,03,25,16,52,11.90
2013,03,25,16,53,11.80
2013,03,25,16,54,11.80
2013,03,25,16,55,11.80
2013,03,25,16,56,11.70
2013,03,25,16,57,11.60
2013,03,25,16,58,11.60
2013,03,25,16,59,11.60
2013,03,25,17,00,11.60
2013,03,25,17,01,11.60
2013,03,25,17,02,11.60
2013,03,25,17,03,11.60
2013,03,25,17,04,11.60
2013,03,25,17,05,11.60
2013,03,25,17,06,11.60
2013,03,25,17,07,11.60
2013,03,25,17,08,11.60
2013,03,25,17,09,11.60
2013,03,25,17,10,11.60
2013,03,25,17,11,11.60
2013,03,25,17,12,11.70
2013,03,25,17,13,11.70
2013,03,25,17,14,11.80
2013,03,25,17,15,11.80
2013,03,25,17,16,11.80
2013,03,25,17,17,11.90
2013,03,25,17,18,12.00
2013,03,25,17,19,12.00
2013,03,25,17,20,11.90
2013,03,25,17,21,11.90
2013,03,25,17,22,11.70
2013,03,25,17,23,11.50
2013,03,25,17,24,11.40
2013,03,25,17,25,11.30
2013,03,25,17,26,11.20
2013,03,25,17,27,11.10
2013,03,25,17,28,11.10
2013,03,25,17,29,11.00
2013,03,25,17,30,10.90
2013,03,25,17,31,10.80
2013,03,25,17,32,10.70
2013,03,25,17,33,10.70
2013,03,25,17,34,10.60
2013,03,25,17,35,10.50
2013,03,25,17,36,10.40
2013,03,25,17,37,10.30
2013,03,25,17,38,10.20
2013,03,25,17,39,10.00
2013,03,25,17,40,9.90
2013,03,25,17,41,9.90
2013,03,25,17,42,9.80
2013,03,25,17,43,9.80
2013,03,25,17,44,9.70
2013,03,25,17,45,9.70
2013,03,25,17,46,9.70
2013,03,25,17,47,9.60
2013,03,25,17,48,9.60
2013,03,25,17,49,9.60
2013,03,25,17,50,9.60
2013,03,25,17,51,9.60
2013,03,25,17,52,9.60
2013,03,25,17,53,9.60
2013,03,25,17,54,9.60
2013,03,25,17,55,9.60
2013,03,25,17,56,9.60
2013,03,25,17,57,9.60
2013,03,25,17,58,9.60
2013,03,25,17,59,9.60
2013,03,25,18,00,9.60
2013,03,25,18,01,9.60
2013,03,25,18,02,9.70
2013,03,25,18,03,9.70
2013,03,25,18,04,9.70
2013,03,25,18,05,9.70
2013,03,25,18,06,9.70
2013,03,25,18,07,9.70
2013,03,25,18,08,9.80
2013,03,25,18,09,9.80
2013,03,25,18,10,9.80
2013,03,25,18,11,9.80
2013,03,25,18,12,9.80
2013,03,25,18,13,9.70
2013,03,25,18,14,9.70
2013,03,25,18,15,9.70
2013,03,25,18,16,9.70
2013,03,25,18,17,9.70
2013,03,25,18,18,9.60
2013,03,25,18,19,9.60
2013,03,25,18,20,9.50
2013,03,25,18,21,9.50
2013,03,25,18,22,9.50
2013,03,25,18,23,9.40
2013,03,25,18,24,9.40
2013,03,25,18,25,9.40
2013,03,25,18,26,9.40
2013,03,25,18,27,9.40
2013,03,25,18,28,9.40
2013,03,25,18,29,9.40
2013,03,25,18,30,9.40
2013,03,25,18,31,9.40
2013,03,25,18,32,9.30
2013,03,25,18,33,9.30
2013,03,25,18,34,9.30
2013,03,25,18,35,9.30
2013,03,25,18,36,9.30
2013,03,25,18,37,9.30
2013,03,25,18,38,9.20
2013,03,25,18,39,9.20
2013,03,25,18,40,9.20
2013,03,25,18,41,9.20
2013,03,25,18,42,9.20
2013,03,25,18,43,9.20
2013,03,25,18,44,9.10
2013,03,25,18,45,9.10
2013,03,25,18,46,9.10
2013,03,25,18,47,9.10
2013,03,25,18,48,9.00
2013,03,25,18,49,9.00
2013,03,25,18,50,9.00
2013,03,25,18,51,9.00
2013,03,25,18,52,8.90
2013,03,25,18,53,8.90
2013,03,25,18,54,8.90
2013,03,25,18,55,8.90
2013,03,25,18,56,8.90
2013,03,25,18,57,8.90
2013,03,25,18,58,8.90
2013,03,25,18,59,8.90
2013,03,25,19,00,8.90
2013,03,25,19,01,8.90
2013,03,25,19,02,8.90
